DECAYED

STARLINK-31664, 59514 (Decayed)

Orbit data source: Space-Track

STARLINK-31664, 59514 was a payload satellite owned by SpaceX/Seattle (US) in LEO that was launched on Wed, 17 Apr 2024 UTC via an FALCON 9 launch vehicle from the Air Force Eastern Test Range (AFETR). Payload-class satellites include a variety of spacecraft equipped with specific instruments for various scientific and technological missions. These include communications satellites like Starlink; space stations such as the ISS; scientific satellites like the Hubble; Earth observation satellites from companies like Planet Labs, Umbra, and HawkEye 360; GPS; miniature CubeSats for education and research; and military/defense satellites.

Not visible in the next 10 days
Identifier
59514, 2024-073D
Orbit
Decayed
Country
Flag of USUS
Related business
Manufacturer
SpaceX/Seattle
Mission
Decayed spacecraft
Bus & Motor
STARLINK V2M, Unknown motor
Mass
730 kg wet, ~700 kg dry
Launch date (UTC)
2024-04-17 (1 year ago)
Launch vehicle
FALCON 9
Launch site
Air Force Eastern Test Range (AFETR)
Object type
Payload
Rocket body
Debris
Shape & HBR
Unknown
Radar Cross Section
Large (>1 m²)

Expand to show TLE details & history
Last TLE update: 7 months ago

TLE from 7 months ago
0 STARLINK-31664
1 59514U 24073D   25052.65341137  .09006158  88614-5  46761-2 0  9991
2 59514  42.9906 300.6195 0006205 253.3280 196.6168 16.19301859 49122
Epoch: 2025-02-21T15:40Z
TLE epoch observation values (Epoch: 2025-02-21T15:40:54.742Z)
Latitude
43.15423°
Longitude
3.4764°
Altitude
228.453 km
Speed
7.774 km/s
True Right ascension
02h 02m 03s
True Declination
42° 58' 08"
Sunlit
Object was in daylight at epoch
Visualization orbit readout
Latitude
Unknown
Longitude
Unknown
Altitude
Unknown
Speed
Unknown
Apparent Right ascension
Unknown
Apparent Declination
Unknown
Sunlit
N/A
Visualization observer readout
Local Sidereal Time
14:35:43
Azimuth
Unknown
Elevation
Unknown
Doppler factor
Unknown
Orbital elements
Apogee altitude
227.568 km
Perigee altitude
219.375 km
Semi-major axis
6,601.609 km
Eccentricity
0.00062
Inclination
42.9906°
RAAN
300.6195°
Arg. of periapsis
253.328°
True anomaly
196.59648°
Mean anomaly
196.6168°
Eccentric anomaly
196.60664°
Mean motion
4.0464 °/min
Orbital period
88.97 mins
BSTAR
0.0046761
Loading maneuver chart data...
Computing Atmospheric mass density...
Loading historical data...
Loading historical data...
Loading historical data...
Loading historical data...
Loading historical data...
Loading historical data...
Loading historical data...

Documentation

Showing up to 5 results
|